Wind_Speed
107 109 95 90 95 93 89 79 76 83 87 85 77 75 71 73 77 73 73 74 78 71 72 67 67 69 71 72 71 69 70 74 75 75 75 75 71 67 65 68 71 70 67 64
117 110 98 102 106 100 91 87 80 86 92 90 86 87 80 80 79 80 80 80 78 75 73 69 69 67 71 72 70 69 69 70 72 72 72 69 64 61 64 66 67 67 64 60
119 105 109 105 107 107 98 94 99 93 98 95 93 92 80 83 83 86 84 82 83 78 71 71 69 68 70 69 69 68 67 66 68 70 65 61 58 58 62 64 65 64 61 51
108 104 108 113 110 109 106 103 102 102 104 95 102 99 89 85 87 85 83 83 78 72 70 68 64 67 68 65 65 65 63 64 63 62 60 54 52 55 58 61 60 60 51 40
105 102 104 105 104 106 102 100 102 104 104 99 93 88 69 77 76 77 74 66 66 65 65 63 60 61 56 58 58 57 57 56 57 57 49 47 50 52 55 56 57 49 42 33
102 107 111 102 101 100 98 95 95 94 92 89 75 81 63 67 69 69 60 55 56 57 58 50 51 48 51 50 49 47 49 52 52 44 43 46 48 53 51 52 43 39 30 26
105 107 101 100 100 97 97 94 95 93 89 74 75 74 58 57 59 53 49 45 43 41 39 41 42 41 43 42 40 41 44 45 36 36 40 45 48 48 51 42 33 25 27 28
108 103 98 97 95 94 92 93 90 88 82 72 72 62 52 55 50 42 36 32 32 37 34 35 34 34 37 35 32 36 37 31 30 33 40 44 44 46 40 31 23 21 21 25
110 105 107 103 96 94 89 89 76 82 78 74 66 52 47 47 42 33 28 28 22 31 27 29 31 31 31 27 30 32 27 24 28 34 39 38 41 39 30 23 19 20 20 20
108 103 108 106 103 100 99 85 89 82 75 66 58 54 46 44 31 27 26 20 20 29 24 29 29 27 22 23 27 23 18 24 29 34 35 36 36 29 24 18 18 24 23 22
97 94 109 106 103 103 100 95 91 88 80 72 64 53 56 48 38 32 26 22 20 25 27 27 21 19 18 20 18 16 20 25 29 31 31 33 29 21 19 16 16 22 26 22
91 85 98 99 102 101 100 96 97 95 85 79 70 60 61 49 40 33 25 26 24 24 29 19 16 16 14 12 13 17 20 25 28 27 30 27 22 15 13 13 14 21 27 23
92 90 91 90 95 99 101 99 100 97 92 82 72 64 62 55 50 40 35 32 25 26 25 15 12 10 9 14 16 19 20 24 24 27 27 22 16 8 10 13 13 18 24 24
67 78 89 93 94 94 91 91 95 92 85 79 67 68 69 58 49 41 36 31 28 27 19 16 14 10 14 14 17 18 21 23 21 25 22 18 14 7 8 11 12 16 22 23
54 58 67 83 97 93 88 84 85 83 78 69 66 72 69 66 54 40 36 33 31 24 23 18 11 12 15 18 16 17 20 19 21 25 19 17 13 10 7 9 11 15 22 30
45 47 55 63 72 84 88 82 77 72 66 63 63 74 69 64 49 45 35 35 27 22 26 19 17 19 16 18 15 16 19 17 20 24 17 17 16 11 6 7 10 14 21 27
34 40 44 46 50 58 68 81 83 73 62 56 66 69 64 63 56 44 36 35 26 27 31 29 22 19 17 16 13 17 15 17 20 23 18 17 15 13 8 5 8 12 17 23
29 35 38 39 44 51 59 65 77 73 71 73 73 67 65 61 60 51 35 29 26 34 28 26 22 18 16 15 15 17 14 17 19 19 15 15 12 17 12 8 6 8 12 18
28 32 36 41 44 49 50 58 70 82 78 76 77 68 69 70 63 49 37 33 29 27 26 28 26 24 16 21 13 16 13 15 15 17 11 13 11 15 16 11 6 7 7 12
30 34 39 46 51 46 48 55 64 72 74 80 77 68 72 54 49 44 38 35 31 29 30 30 26 25 14 15 11 15 14 13 11 13 9 11 10 8 15 15 10 7 4 7
30 34 41 47 51 52 49 52 55 62 74 82 75 67 59 56 46 43 38 37 35 31 30 29 28 27 14 13 14 15 14 13 10 12 8 8 9 6 6 9 8 10 5 2
36 39 41 45 50 50 49 50 66 74 76 75 73 64 54 50 49 45 41 42 38 32 31 29 24 20 19 18 17 16 14 12 8 10 7 5 5 4 3 4 8 12 8 5
46 48 49 49 54 55 53 48 58 72 77 80 70 61 56 52 53 49 46 44 41 32 32 32 24 17 23 21 19 17 13 11 5 8 2 3 3 2 2 1 3 8 11 9
43 46 52 58 56 59 70 73 72 74 73 67 61 60 53 58 57 53 51 45 42 40 32 29 24 23 26 25 21 17 13 11 3 5 4 1 3 1 1 0 1 3 6 10
43 47 54 60 68 70 67 68 69 75 76 75 72 69 65 65 65 57 54 46 41 42 36 32 28 26 24 21 22 19 15 11 4 1 5 4 2 2 2 1 2 3 3 5
39 46 51 59 63 71 80 82 80 80 82 79 79 67 66 65 62 57 57 51 45 45 42 33 34 31 25 24 24 21 17 13 7 4 5 7 6 6 3 2 1 2 3 4
Wind_Direction
238 243 244 242 242 241 244 248 247 248 252 255 258 261 261 262 265 271 270 270 277 280 280 282 283 286 288 291 292 292 296 294 294 297 299 302 304 305 307 309 310 313 314 313
242 243 248 247 242 244 245 245 246 247 251 257 262 261 262 263 265 271 269 272 280 282 279 282 284 289 286 287 290 291 291 290 293 295 299 301 303 305 307 310 313 313 314 313
244 244 245 245 244 244 246 248 246 247 254 254 257 259 262 267 269 270 270 275 276 278 279 281 287 288 284 287 286 288 287 290 292 295 298 300 302 306 309 311 312 314 313 313
241 241 244 245 247 250 250 254 252 250 254 259 261 260 268 267 266 271 268 272 276 279 279 282 285 284 284 285 283 283 286 289 293 294 298 299 304 307 310 310 310 310 311 306
241 241 243 245 247 248 248 249 251 251 254 256 262 266 262 263 266 266 268 274 276 278 282 283 282 279 280 279 278 281 285 289 292 296 297 301 305 309 309 309 311 310 311 316
242 242 241 242 244 247 248 248 249 251 253 254 260 262 260 263 263 266 274 279 278 278 278 278 274 275 276 278 280 281 286 290 294 294 300 303 310 309 311 310 310 306 312 322
239 242 241 242 243 245 247 249 251 252 254 257 257 258 260 264 263 273 273 270 272 271 272 270 273 276 273 274 276 281 286 290 291 298 301 306 310 311 312 313 310 318 324 336
241 242 243 242 242 243 246 247 249 255 255 254 250 261 258 261 267 264 266 266 271 275 277 276 277 273 276 278 285 285 284 288 293 299 301 308 311 312 312 314 323 332 341 347
238 239 241 243 243 245 245 245 248 249 249 250 255 254 254 257 262 272 267 259 272 283 279 283 280 278 280 286 286 282 285 290 295 298 305 310 311 310 309 320 334 346 342 341
238 236 240 241 241 242 243 244 246 248 250 253 254 254 253 257 261 266 266 264 286 287 284 288 282 281 283 281 279 278 286 291 296 304 308 311 310 308 314 319 329 345 339 330
235 232 237 238 238 240 241 242 245 248 247 251 249 251 253 252 254 261 271 276 280 288 292 288 278 267 271 264 270 287 285 293 302 305 311 312 308 307 315 323 335 345 345 327
235 228 232 233 237 239 240 241 240 241 243 245 247 249 251 253 252 253 264 267 279 296 295 278 265 261 247 261 277 281 287 300 302 305 314 310 306 310 317 337 1 358 359 343
236 232 227 230 230 232 233 234 237 239 239 240 241 242 248 250 251 251 251 258 270 289 284 249 233 251 251 275 271 284 299 300 301 310 315 306 294 311 353 358 341 356 360 354
234 233 230 228 229 229 229 229 233 236 237 240 239 239 246 248 248 247 251 258 268 281 250 216 218 251 269 264 274 289 301 294 306 315 312 303 280 288 350 352 351 351 359 350
230 229 227 225 227 228 226 226 231 233 233 234 239 239 243 246 245 241 242 250 260 279 213 210 227 244 280 259 275 295 297 297 314 316 303 306 263 274 325 353 357 2 357 355
227 224 224 223 224 225 226 225 225 226 226 227 232 236 237 241 241 237 233 242 250 269 206 210 229 252 275 273 270 311 298 305 314 314 306 304 257 256 295 352 357 352 356 360
220 217 218 217 217 218 219 220 218 215 211 211 220 226 231 234 229 228 230 240 246 241 205 221 225 244 266 279 283 313 292 304 312 315 308 305 252 233 251 292 345 353 3 12
210 208 204 202 202 205 208 211 212 206 202 208 215 213 220 226 233 234 226 232 242 221 204 220 231 240 255 278 289 310 290 305 313 318 306 313 265 235 241 268 303 328 5 19
193 193 189 189 191 197 197 202 201 200 199 206 212 206 214 221 223 224 216 217 229 204 202 212 218 236 251 280 289 307 285 302 322 321 309 320 292 238 232 250 265 294 349 24
184 180 178 180 182 184 183 189 196 197 197 205 208 205 212 211 208 210 210 217 197 196 203 217 219 223 250 269 298 303 280 296 318 326 324 316 310 264 238 243 258 243 302 41
176 177 175 179 179 172 176 182 186 191 197 205 202 208 204 202 199 201 201 209 197 201 210 219 213 221 266 269 301 294 277 290 314 332 331 309 306 304 265 241 222 212 235 65
167 165 161 160 164 165 172 175 183 180 200 200 203 204 200 194 195 197 200 200 191 196 212 221 221 212 250 264 278 282 272 281 307 335 328 317 299 307 319 241 219 216 220 227
175 178 171 162 173 170 164 179 180 186 195 198 201 197 190 187 191 197 198 197 202 201 215 221 206 234 245 263 264 267 262 269 305 344 351 329 311 317 317 311 203 213 219 223
186 183 178 171 164 172 170 180 187 189 191 192 192 194 183 182 190 201 193 196 201 199 200 210 233 235 250 256 262 248 249 254 271 358 71 50 300 228 289 326 86 180 197 198
191 188 183 179 175 178 173 179 184 187 188 186 191 188 182 179 192 198 200 193 203 203 207 192 217 228 237 244 254 235 238 237 225 1 67 75 48 189 186 157 100 101 120 169
205 202 198 194 191 190 189 189 183 184 186 188 186 185 178 184 193 195 198 199 202 205 204 197 215 223 237 249 251 229 230 221 199 158 94 95 91 101 131 179 179 152 117 124
Height
10645 10647 10679 10704 10690 10696 10709 10731 10738 10740 10732 10732 10747 10756 10768 10768 10764 10777 10776 10779 10778 10778 10780 10783 10782 10783 10777 10773 10770 10767 10765 10756 10750 10745 10738 10731 10725 10718 10711 10703 10696 10691 10682 10672
10615 10648 10668 10654 10666 10682 10697 10710 10724 10723 10712 10718 10731 10732 10754 10757 10760 10760 10764 10766 10761 10768 10771 10770 10772 10773 10762 10759 10757 10755 10753 10747 10740 10735 10730 10723 10716 10709 10703 10696 10688 10679 10671 10662
10598 10637 10631 10636 10651 10663 10679 10695 10697 10706 10689 10707 10719 10717 10743 10745 10748 10745 10753 10747 10751 10760 10760 10756 10759 10758 10749 10748 10745 10741 10738 10737 10731 10725 10721 10716 10709 10702 10695 10687 10677 10668 10661 10651
10588 10604 10612 10624 10630 10639 10663 10664 10675 10681 10676 10705 10697 10708 10734 10732 10726 10736 10734 10735 10746 10745 10741 10744 10749 10742 10736 10737 10732 10728 10725 10723 10720 10716 10712 10706 10701 10696 10689 10681 10670 10661 10653 10645
10583 10587 10593 10598 10616 10620 10648 10644 10651 10655 10670 10679 10694 10691 10729 10710 10716 10712 10720 10735 10733 10730 10730 10733 10732 10725 10724 10721 10719 10717 10715 10712 10709 10707 10702 10697 10693 10688 10682 10672 10664 10654 10644 10636
10554 10557 10561 10589 10593 10602 10610 10624 10631 10637 10655 10665 10692 10678 10709 10699 10697 10702 10719 10722 10718 10717 10716 10719 10714 10716 10712 10710 10708 10707 10706 10704 10702 10697 10693 10688 10686 10678 10673 10665 10657 10648 10640 10634
10519 10524 10553 10566 10576 10584 10593 10601 10616 10627 10639 10672 10658 10668 10695 10681 10683 10701 10704 10706 10706 10705 10706 10703 10704 10703 10701 10698 10698 10697 10697 10696 10694 10689 10685 10681 10678 10670 10663 10657 10650 10642 10635 10628
10499 10518 10534 10542 10553 10564 10580 10580 10598 10616 10632 10648 10634 10669 10682 10671 10677 10688 10693 10694 10696 10693 10694 10693 10692 10691 10689 10689 10689 10690 10690 10689 10686 10683 10679 10676 10670 10664 10657 10652 10645 10639 10632 10626
10472 10502 10503 10520 10538 10547 10564 10567 10600 10593 10607 10617 10634 10655 10663 10661 10669 10677 10681 10683 10685 10682 10686 10683 10682 10681 10682 10682 10683 10684 10685 10682 10680 10678 10674 10670 10663 10658 10653 10648 10641 10634 10629 10624
10444 10480 10480 10502 10512 10526 10531 10566 10561 10580 10597 10612 10628 10638 10652 10653 10663 10669 10671 10674 10678 10676 10677 10675 10674 10674 10675 10677 10679 10679 10678 10676 10675 10671 10668 10664 10657 10652 10647 10643 10637 10632 10627 10623
10414 10455 10456 10468 10490 10505 10521 10540 10554 10565 10581 10593 10614 10630 10632 10644 10654 10660 10663 10667 10669 10669 10669 10669 10669 10668 10671 10673 10673 10673 10673 10672 10670 10665 10662 10657 10653 10648 10644 10640 10635 10631 10625 10620
10397 10430 10432 10452 10468 10484 10500 10526 10530 10538 10565 10577 10600 10620 10618 10633 10644 10653 10658 10659 10662 10662 10662 10663 10663 10665 10667 10669 10670 10670 10669 10667 10664 10660 10656 10652 10648 10645 10641 10638 10634 10629 10625 10619
10377 10403 10416 10430 10444 10455 10472 10497 10506 10523 10542 10565 10589 10609 10609 10620 10631 10644 10651 10654 10658 10658 10658 10659 10660 10662 10664 10666 10667 10666 10664 10662 10660 10654 10651 10647 10645 10642 10640 10637 10633 10629 10626 10620
10359 10375 10397 10412 10420 10433 10458 10479 10489 10511 10539 10561 10586 10593 10593 10610 10622 10634 10641 10648 10652 10654 10654 10656 10658 10661 10662 10663 10664 10662 10660 10657 10655 10650 10647 10643 10641 10640 10638 10635 10632 10628 10625 10620
10342 10357 10374 10386 10399 10418 10443 10466 10479 10503 10531 10553 10577 10577 10585 10594 10612 10625 10634 10641 10644 10649 10651 10654 10656 10658 10659 10660 10659 10658 10657 10653 10650 10645 10642 10640 10639 10638 10637 10633 10631 10628 10624 10619
10331 10345 10355 10368 10388 10408 10431 10454 10476 10498 10524 10545 10561 10557 10574 10589 10606 10615 10625 10633 10639 10645 10649 10651 10652 10654 10655 10656 10655 10654 10652 10649 10646 10641 10637 10635 10635 10636 10635 10633 10630 10628 10625 10619
10327 10336 10346 10363 10381 10398 10418 10434 10455 10480 10507 10530 10534 10546 10569 10577 10588 10605 10618 10626 10634 10638 10644 10646 10648 10650 10652 10652 10651 10650 10648 10646 10642 10638 10633 10631 10631 10632 10633 10632 10631 10629 10627 10621
10321 10329 10341 10356 10369 10383 10397 10419 10441 10471 10485 10494 10503 10532 10551 10563 10581 10600 10616 10622 10629 10634 10638 10641 10644 10647 10648 10648 10647 10646 10645 10643 10639 10635 10632 10629 10626 10628 10630 10630 10631 10630 10628 10624
10318 10328 10339 10352 10365 10377 10396 10412 10427 10440 10464 10482 10490 10522 10532 10546 10569 10590 10608 10616 10621 10626 10632 10636 10638 10642 10644 10645 10644 10643 10643 10640 10637 10632 10630 10627 10626 10625 10627 10628 10629 10629 10628 10626
10319 10328 10339 10348 10359 10375 10392 10406 10423 10445 10469 10475 10498 10515 10522 10554 10569 10587 10600 10609 10616 10623 10627 10631 10634 10637 10640 10641 10641 10641 10640 10638 10635 10631 10627 10625 10624 10623 10623 10624 10626 10627 10627 10627
10322 10330 10339 10350 10359 10369 10387 10408 10429 10447 10463 10469 10495 10508 10527 10544 10563 10579 10594 10603 10611 10618 10622 10625 10630 10633 10636 10637 10638 10639 10638 10636 10633 10629 10625 10625 10624 10622 10622 10622 10623 10625 10627 10627
10325 10331 10341 10355 10367 10373 10385 10406 10424 10436 10445 10470 10489 10506 10526 10543 10555 10571 10585 10595 10604 10613 10616 10622 10625 10628 10632 10633 10635 10636 10636 10635 10632 10628 10624 10624 10624 10623 10622 10621 10621 10623 10626 10627
10325 10330 10341 10354 10367 10374 10392 10404 10414 10432 10443 10463 10485 10503 10518 10537 10549 10565 10579 10587 10596 10607 10615 10617 10622 10626 10628 10630 10632 10633 10634 10633 10630 10627 10624 10623 10623 10623 10623 10621 10621 10622 10624 10626
10326 10336 10344 10348 10361 10374 10380 10394 10410 10429 10445 10468 10483 10495 10512 10528 10544 10558 10570 10580 10589 10599 10608 10614 10616 10623 10625 10628 10630 10631 10632 10632 10629 10627 10624 10623 10623 10622 10623 10623 10622 10622 10622 10624
10327 10336 10346 10352 10357 10368 10376 10383 10399 10419 10437 10453 10470 10483 10498 10515 10534 10551 10564 10575 10585 10594 10603 10607 10610 10616 10618 10622 10626 10628 10629 10630 10629 10627 10624 10623 10623 10623 10623 10624 10624 10623 10623 10624
10333 10336 10345 10350 10359 10366 10373 10385 10403 10415 10427 10448 10460 10483 10500 10517 10530 10546 10558 10568 10577 10585 10593 10600 10607 10611 10614 10618 10623 10625 10627 10628 10628 10627 10625 10625 10624 10624 10624 10625 10625 10625 10625 10625